FW0304 Weather Reports


Display with metric or nautical units.
time (UTC)temp
F
wind
direction
speed
MPH
gust
MPH
rain 1hr
in
rain 24hr
in
rain mn
in
humidity
%
barometer
mb
20260904194522 96 173 0.0 5.0 0.00 0.00 0.00 47 1014.0
20260904193037 96 173 0.0 3.0 0.00 0.00 0.00 48 1014.5
20260904191513 96 330 0.0 2.0 0.00 0.00 0.00 48 1014.9
20260904190017 96 32 1.0 4.0 0.00 0.00 0.00 50 1015.1
20260904184521 95 184 0.0 4.0 0.00 0.00 0.00 51 1015.3
20260904183026 97 258 1.0 5.0 0.00 0.00 0.00 49 1015.4
20260904181509 96 150 1.0 4.0 0.00 0.00 0.00 48 1015.6
20260904180014 96 134 0.0 3.0 0.00 0.00 0.00 50 1015.7
20260904174521 96 138 1.0 3.0 0.00 0.00 0.00 50 1016.0
20260904173029 96 105 1.0 5.0 0.00 0.00 0.00 50 1016.0
20260904171552 96 121 0.0 6.0 0.00 0.00 0.00 52 1016.3
20260904170010 95 181 0.0 3.0 0.00 0.00 0.00 52 1016.6
20260904164518 95 71 1.0 4.0 0.00 0.00 0.00 53 1016.7
20260904163043 94 154 1.0 3.0 0.00 0.00 0.00 54 1016.8
20260904161527 94 323 0.0 2.0 0.00 0.00 0.00 57 1016.8
20260904160031 93 198 0.0 3.0 0.00 0.00 0.00 58 1016.8
20260904154518 94 339 0.0 3.0 0.00 0.00 0.00 56 1016.9
20260904153025 92 167 1.0 2.0 0.00 0.00 0.00 62 1016.8
20260904151537 90 184 1.0 2.0 0.00 0.00 0.00 64 1016.8
20260904150008 89 28 1.0 3.0 0.00 0.00 0.00 66 1016.8
20260904144514 88 108 0.0 2.0 0.00 0.00 0.00 71 1016.7
20260904143018 87 12 0.0 2.0 0.00 0.00 0.00 73 1016.6
20260904141528 85 334 0.0 2.0 0.00 0.00 0.00 75 1016.7
20260904140006 84 128 0.0 2.0 0.00 0.00 0.00 78 1016.7
20260904134514 82 55 0.0 2.0 0.00 0.00 0.00 80 1016.6
20260904133022 80 144 1.0 2.0 0.00 0.00 0.00 84 1016.6
20260904131526 79 45 0.0 2.0 0.00 0.00 0.00 88 1016.5
20260904130028 78 19 0.0 1.0 0.00 0.00 0.00 88 1016.4
20260904124511 77 88 0.0 2.0 0.00 0.00 0.00 91 1016.3
20260904123012 76 69 0.0 0.0 0.00 0.00 0.00 93 1016.2
20260904121522 75 69 0.0 0.0 0.00 0.00 0.00 93 1016.1
20260904120041 74 69 0.0 0.0 0.00 0.00 0.00 1015.9
20260904114533 74 69 0.0 0.0 0.00 0.00 0.00 94 1015.7
20260904113013 73 69 0.0 0.0 0.00 0.00 0.00 93 1015.6
20260904111522 73 69 0.0 0.0 0.00 0.00 0.00 93 1015.7
20260904110026 74 69 0.0 0.0 0.00 0.00 0.00 93 1015.7
20260904104530 74 69 0.0 0.0 0.00 0.00 0.00 93 1015.6
20260904103037 74 69 0.0 0.0 0.00 0.00 0.00 93 1015.5
20260904101519 74 69 0.0 0.0 0.00 0.00 0.00 93 1015.5
20260904100023 74 69 0.0 0.0 0.00 0.00 0.00 93 1015.5
20260904094531 74 69 0.0 0.0 0.00 0.00 0.00 93 1015.3
20260904093029 74 69 0.0 0.0 0.00 0.00 0.00 93 1015.3
20260904091519 74 69 0.0 0.0 0.00 0.00 0.00 93 1015.3
20260904090025 74 69 0.0 0.0 0.00 0.00 0.00 93 1015.1
20260904084529 74 69 0.0 0.0 0.00 0.00 0.00 93 1015.0
20260904083031 74 69 0.0 0.0 0.00 0.00 0.00 93 1015.1
20260904081534 74 69 0.0 0.0 0.00 0.00 0.00 93 1015.0
20260904080016 74 69 0.0 0.0 0.00 0.00 0.00 92 1015.1
20260904074526 74 69 0.0 0.0 0.00 0.00 0.00 93 1014.9
20260904073032 75 69 0.0 0.0 0.00 0.00 0.00 93 1014.9
20260904071535 75 69 0.0 0.0 0.00 0.00 0.00 92 1014.8
20260904070043 75 69 0.0 0.0 0.00 0.00 0.00 92 1014.9
20260904064523 75 69 0.0 0.0 0.00 0.00 0.00 92 1014.9
20260904063003 75 69 0.0 0.0 0.00 0.00 0.00 92 1015.2
20260904061508 75 69 0.0 0.0 0.00 0.00 0.00 91 1015.0
20260904060012 76 69 0.0 0.0 0.00 0.00 0.00 91 1015.1
20260904054526 76 69 0.0 0.0 0.00 0.00 0.00 91 1015.1
20260904053005 76 69 0.0 0.0 0.00 0.00 0.00 90 1015.3
20260904051507 77 69 0.0 0.0 0.00 0.00 0.00 89 1015.2
20260904050011 77 69 0.0 0.0 0.00 0.00 0.00 89 1015.3
20260904044513 77 69 0.0 0.0 0.00 0.00 0.00 89 1015.1
20260904043012 77 69 0.0 0.0 0.00 0.00 0.00 89 1015.1
20260904041507 77 69 0.0 0.0 0.00 0.00 0.00 89 1015.2
20260904040011 78 69 0.0 0.0 0.00 0.00 0.00 88 1015.2
20260904034514 78 69 0.0 0.0 0.00 0.00 0.00 88 1015.2
20260904033026 78 69 0.0 0.0 0.00 0.00 0.00 89 1015.2
20260904031514 77 69 0.0 0.0 0.00 0.00 0.00 89 1015.3
20260904030006 78 69 0.0 1.0 0.00 0.00 0.00 89 1015.4
20260904024512 78 69 0.0 0.0 0.00 0.00 0.00 88 1015.6
20260904023016 78 69 0.0 0.0 0.00 0.00 0.00 87 1015.4
20260904021520 78 69 0.0 0.0 0.00 0.00 0.00 87 1015.6
20260904020018 78 69 0.0 0.0 0.00 0.00 0.00 87 1015.3
20260904014513 78 69 0.0 0.0 0.00 0.00 0.00 86 1015.2
20260904013018 79 69 0.0 0.0 0.00 0.00 0.00 86 1015.0
20260904011516 79 69 0.0 0.0 0.00 0.00 0.00 85 1014.9
20260904010019 79 69 0.0 0.0 0.00 0.00 0.00 84 1014.6
20260904004508 80 69 0.0 0.0 0.00 0.00 0.00 83 1014.4
20260904003013 80 69 0.0 0.0 0.00 0.00 0.00 82 1014.5
20260904001521 81 69 0.0 0.0 0.00 0.00 0.00 81 1014.4
20260904000023 82 69 0.0 0.0 0.00 0.00 0.00 78 1014.5
20260903234523 82 69 0.0 0.0 0.00 0.00 0.00 77 1014.4
20260903233024 82 69 0.0 0.0 0.00 0.00 0.00 77 1014.7
20260903231530 82 69 0.0 0.0 0.00 0.00 0.00 75 1014.7
20260903230024 82 45 0.0 2.0 0.00 0.00 0.00 75 1015.2
20260903224530 83 140 0.0 1.0 0.00 0.00 0.00 76 1015.5
20260903223024 85 121 0.0 5.0 0.00 0.00 0.00 71 1015.8
20260903221519 90 136 2.0 8.0 0.00 0.00 0.00 59 1015.0
20260903220034 96 332 2.0 10.0 0.00 0.00 0.00 52 1014.1
20260903214523 97 124 0.0 3.0 0.00 0.00 0.00 48 1013.6
20260903213622 96 107 1.0 3.0 0.00 0.00 0.00 47 1013.6
20260903211516 96 184 1.0 2.0 0.00 0.00 0.00 48 1013.6
20260903210021 96 335 0.0 2.0 0.00 0.00 0.00 49 1013.7
20260903204528 95 138 1.0 4.0 0.00 0.00 0.00 52 1014.0
20260903203006 96 111 1.0 3.0 0.00 0.00 0.00 49 1013.9
20260903201514 97 143 0.0 3.0 0.00 0.00 0.00 50 1014.1
20260903200017 96 360 1.0 3.0 0.00 0.00 0.00 49 1014.7